{"data":{"norad_id":63945,"epoch":"2026-05-25T02:11:43.698336Z","epoch_age_seconds":57380,"freshness":"FRESH","line1":"1 63945U 25098V   26145.09147799  .00002849  00000+0  24643-3 0  9999","line2":"2 63945  70.0011  81.9464 0003098 266.9817  93.0987 14.98334970 57993","mean_motion":14.9833497,"eccentricity":0.0003098,"inclination_deg":70.0011,"raan_deg":81.9464,"arg_perigee_deg":266.9817,"mean_anomaly_deg":93.0987,"bstar":0.00024643,"rev_number":5799,"period_min":96.106680337308,"perigee_km":569.88735667566,"apogee_km":574.19368666809,"semimajor_km":6950.1775216719,"source":"CELESTRAK","updated_at":"2026-05-25T13:38:20.187324Z"}}